Location: Unspecified
(0.0000°N, 0.0000°E)
Time: 14:54:45
(UTC+00:00)

O/OREOS (USA 219) - Pass Details

Date: 17 December 2019
Orbit: 621 x 646 km, 72.0° (Epoch: 22 May)

Event Time Altitude Azimuth Distance (km) Brightness Sun altitude
Rises 18:55:20 0° 188° (S) 2,923 ? -13.6°
Reaches altitude 10° 18:57:37 10° 185° (S) 2,017 ? -14.1°
Maximum altitude 19:02:05 61° 104° (ESE) 720 ? -15.1°
Enters shadow 19:05:07 20° 29° (NNE) 1,468 ? -15.8°
